{"data":{"norad_id":63050,"intl_designator":"2025-034X","name":"STARLINK-32816","alt_names":[],"object_type":"PAYLOAD","status":"ACTIVE","operator":null,"country":"US","launch_date":"2025-02-18","launch_site_code":"AFETR","launch_vehicle":null,"mission":null,"orbit_class":"UNKNOWN","rcs_meters":null,"size_class":null,"mass_kg":null,"dimensions":null,"purposes":["comms"],"wikipedia_slug":null,"has_3d_model":false,"image_url":null,"decayed_at":null,"tle_current":{"epoch":"2026-09-21T21:25:10.851744Z","epoch_age_seconds":44905,"freshness":"FRESH","line1":"1 63050U 25034X   26264.89248671  .00003692  00000+0  12039-3 0  9990","line2":"2 63050  53.1594  75.4986 0001232  85.0635 275.0508 15.34392461 89009","mean_motion":15.34392461,"eccentricity":0.0001232,"inclination_deg":53.1594,"raan_deg":75.4986,"arg_perigee_deg":85.0635,"mean_anomaly_deg":275.0508,"bstar":0.00012039,"rev_number":8900,"period_min":93.848219187777,"perigee_km":461.88285351742,"apogee_km":463.56844207383,"semimajor_km":6840.8626477956,"source":"CELESTRAK","updated_at":"2026-09-22T09:00:49.748490Z"}}}